"read_dt","SO2 (ppb)","flags","PMT voltage (V)","lamp voltage (V)","lamp intensity (Hz)","internal temp (C)","react chamber temp (C)","sample flow (l/min)","pres (mmHg)","SO2 bkg (ppb)","SO2 coefficient"
2013-11-16 00:00:00,1655E-4,5C000000,-0724,0966,10934,025.1,045.2,0.400,744.7,01.17,0.508
2013-11-16 00:01:00,1118E-4,5C000000,-0724,0966,10661,025.1,045.2,0.400,744.7,01.17,0.508
2013-11-16 00:02:00,1544E-4,5C000000,-0724,0966,10857,025.1,045.2,0.400,744.7,01.17,0.508
2013-11-16 00:03:00,1266E-4,5C000000,-0724,0966,10920,025.1,045.2,0.400,744.7,01.17,0.508
2013-11-16 00:04:00,1019E-4,5C000000,-0724,0966,10772,025.1,045.2,0.400,744.7,01.17,0.508
2013-11-16 00:05:00,2298E-4,5C000000,-0724,0966,10882,025.1,045.3,0.400,744.7,01.17,0.508
2013-11-16 00:06:00,1432E-4,5C000000,-0724,0966,10903,025.1,045.2,0.400,744.7,01.17,0.508
2013-11-16 00:07:00,9192E-5,5C000000,-0724,0966,10979,025.1,045.3,0.400,744.7,01.17,0.508
2013-11-16 00:08:00,1753E-4,5C000000,-0724,0965,10875,025.1,045.2,0.400,744.7,01.17,0.508
2013-11-16 00:09:00,1785E-4,5C000000,-0724,0966,10909,025.1,045.2,0.400,744.7,01.17,0.508
2013-11-16 00:10:00,1201E-4,5C000000,-0724,0965,10809,025.1,045.2,0.400,744.6,01.17,0.508
2013-11-16 00:11:00,9987E-5,5C000000,-0724,0966,10862,025.1,045.2,0.400,744.6,01.17,0.508
2013-11-16 00:12:00,5780E-5,5C000000,-0724,0965,10873,025.1,045.2,0.400,744.6,01.17,0.508
2013-11-16 00:13:00,1337E-4,5C000000,-0724,0965,10784,025.1,045.2,0.400,744.6,01.17,0.508
2013-11-16 00:14:00,2237E-4,5C000000,-0724,0965,10783,025.1,045.2,0.400,744.6,01.17,0.508
2013-11-16 00:15:00,9131E-5,5C000000,-0724,0966,10892,025.1,045.2,0.400,744.6,01.17,0.508
2013-11-16 00:16:00,1522E-4,5C000000,-0724,0966,10901,025.1,045.3,0.400,744.7,01.17,0.508
2013-11-16 00:17:00,1484E-4,5C000000,-0724,0966,10905,025.1,045.2,0.400,744.6,01.17,0.508
2013-11-16 00:18:00,8421E-5,5C000000,-0724,0966,10907,025.1,045.2,0.400,744.6,01.17,0.508
2013-11-16 00:19:00,1837E-4,5C000000,-0724,0967,10922,025.1,045.2,0.400,744.6,01.17,0.508
2013-11-16 00:20:00,1658E-4,5C000000,-0724,0966,10941,025.1,045.2,0.400,744.6,01.17,0.508
2013-11-16 00:21:00,1104E-4,5C000000,-0724,0966,10900,025.1,045.3,0.400,744.6,01.17,0.508
2013-11-16 00:22:00,7953E-5,5C000000,-0724,0967,10954,025.1,045.2,0.400,744.6,01.17,0.508
2013-11-16 00:23:00,2343E-4,5C000000,-0724,0966,10983,025.1,045.2,0.400,744.6,01.17,0.508
2013-11-16 00:24:00,1065E-4,5C000000,-0724,0965,10867,025.1,045.2,0.400,744.5,01.17,0.508
2013-11-16 00:25:00,1531E-4,5C000000,-0724,0966,10771,025.1,045.2,0.400,744.6,01.17,0.508
2013-11-16 00:26:00,2246E-4,5C000000,-0724,0965,10898,025.1,045.2,0.400,744.7,01.17,0.508
2013-11-16 00:27:00,1365E-4,5C000000,-0724,0966,10931,025.1,045.2,0.400,744.7,01.17,0.508
2013-11-16 00:28:00,9405E-5,5C000000,-0724,0966,10900,025.1,045.3,0.400,744.7,01.17,0.508
2013-11-16 00:29:00,1647E-4,5C000000,-0724,0966,10857,025.1,045.2,0.400,744.7,01.17,0.508
2013-11-16 00:30:00,2114E-4,5C000000,-0724,0967,10807,025.1,045.2,0.400,744.7,01.17,0.508
2013-11-16 00:31:00,1182E-4,5C000000,-0724,0966,10845,025.1,045.2,0.400,744.7,01.17,0.508
2013-11-16 00:32:00,2127E-4,5C000000,-0724,0965,10799,025.1,045.3,0.400,744.7,01.17,0.508
2013-11-16 00:33:00,9722E-5,5C000000,-0724,0966,10893,025.1,045.2,0.400,744.7,01.17,0.508
2013-11-16 00:34:00,1213E-4,5C000000,-0724,0966,10900,025.1,045.2,0.400,744.8,01.17,0.508
2013-11-16 00:35:00,2208E-4,5C000000,-0724,0967,10856,025.1,045.2,0.400,744.9,01.17,0.508
2013-11-16 00:36:00,1863E-4,5C000000,-0724,0966,10854,025.1,045.2,0.400,744.8,01.17,0.508
2013-11-16 00:37:00,1176E-4,5C000000,-0724,0966,10752,025.1,045.2,0.400,744.8,01.17,0.508
2013-11-16 00:38:00,1562E-4,5C000000,-0724,0966,10951,025.1,045.3,0.400,744.9,01.17,0.508
2013-11-16 00:39:00,8264E-5,5C000000,-0724,0966,10970,025.1,045.2,0.400,744.8,01.17,0.508
2013-11-16 00:40:00,1522E-4,5C000000,-0724,0966,10650,025.1,045.2,0.400,744.8,01.17,0.508
2013-11-16 00:41:00,1443E-4,5C000000,-0724,0966,10903,025.1,045.3,0.400,744.9,01.17,0.508
2013-11-16 00:42:00,7748E-5,5C000000,-0724,0967,10606,025.1,045.2,0.400,744.9,01.17,0.508
2013-11-16 00:43:00,2438E-4,5C000000,-0724,0966,10749,025.1,045.3,0.400,744.9,01.17,0.508
2013-11-16 00:44:00,9627E-5,5C000000,-0724,0967,10818,025.2,045.2,0.400,744.9,01.17,0.508
2013-11-16 00:45:00,1369E-4,5C000000,-0724,0967,10890,025.1,045.2,0.400,744.9,01.17,0.508
2013-11-16 00:46:00,2069E-4,5C000000,-0724,0966,10907,025.1,045.2,0.400,744.9,01.17,0.508
2013-11-16 00:47:00,1335E-4,5C000000,-0724,0966,10940,025.2,045.3,0.400,744.9,01.17,0.508
2013-11-16 00:48:00,1262E-4,5C000000,-0724,0967,10946,025.2,045.3,0.400,744.8,01.17,0.508
2013-11-16 00:49:00,1844E-4,5C000000,-0724,0966,10798,025.1,045.3,0.400,744.8,01.17,0.508
2013-11-16 00:50:00,1339E-4,5C000000,-0724,0966,10876,025.2,045.3,0.400,744.9,01.17,0.508
2013-11-16 00:51:00,6800E-5,5C000000,-0724,0967,10853,025.1,045.3,0.400,744.9,01.17,0.508
2013-11-16 00:52:00,1862E-4,5C000000,-0724,0966,10848,025.2,045.3,0.400,744.9,01.17,0.508
2013-11-16 00:53:00,1208E-4,5C000000,-0724,0966,10861,025.2,045.2,0.400,744.9,01.17,0.508
2013-11-16 00:54:00,1293E-4,5C000000,-0724,0966,10840,025.2,045.2,0.400,744.9,01.17,0.508
2013-11-16 00:55:00,1988E-4,5C000000,-0724,0966,10930,025.1,045.2,0.400,744.9,01.17,0.508
2013-11-16 00:56:00,2078E-4,5C000000,-0724,0967,10864,025.2,045.3,0.400,744.9,01.17,0.508
2013-11-16 00:57:00,1571E-4,5C000000,-0724,0966,10902,025.2,045.2,0.400,744.9,01.17,0.508
2013-11-16 00:58:00,1407E-4,5C000000,-0724,0965,10823,025.2,045.3,0.400,745.0,01.17,0.508
2013-11-16 00:59:00,1469E-4,5C000000,-0724,0966,10737,025.2,045.3,0.400,745.0,01.17,0.508
2013-11-16 01:00:00,1441E-4,5C000000,-0724,0966,10845,025.2,045.2,0.400,745.0,01.17,0.508
2013-11-16 01:01:00,1651E-4,5C000000,-0724,0966,10761,025.2,045.3,0.400,745.0,01.17,0.508
2013-11-16 01:02:00,8291E-5,5C000000,-0724,0966,10902,025.2,045.3,0.400,745.0,01.17,0.508
2013-11-16 01:03:00,1447E-4,5C000000,-0724,0966,10828,025.2,045.3,0.400,745.1,01.17,0.508
2013-11-16 01:04:00,2432E-6,5C000000,-0724,0966,10764,025.2,045.2,0.400,745.1,01.17,0.508
2013-11-16 01:05:00,9376E-5,5C000000,-0724,0966,10714,025.2,045.2,0.400,745.1,01.17,0.508
2013-11-16 01:06:00,1353E-4,5C000000,-0724,0966,10867,025.2,045.2,0.400,745.1,01.17,0.508
2013-11-16 01:07:00,1345E-4,5C000000,-0724,0966,10922,025.2,045.2,0.400,745.1,01.17,0.508
2013-11-16 01:08:00,2018E-4,5C000000,-0724,0966,10916,025.2,045.2,0.400,745.1,01.17,0.508
2013-11-16 01:09:00,1434E-4,5C000000,-0724,0967,10918,025.2,045.2,0.400,745.1,01.17,0.508
2013-11-16 01:10:00,1028E-4,5C000000,-0724,0966,10816,025.2,045.2,0.400,745.0,01.17,0.508
2013-11-16 01:11:00,1432E-4,5C000000,-0724,0967,10919,025.2,045.2,0.400,745.0,01.17,0.508
2013-11-16 01:12:00,1161E-4,5C000000,-0724,0966,10907,025.2,045.2,0.400,745.0,01.17,0.508
2013-11-16 01:13:00,8474E-5,5C000000,-0724,0966,10954,025.2,045.2,0.400,745.1,01.17,0.508
2013-11-16 01:14:00,6584E-5,5C000000,-0724,0966,10799,025.2,045.2,0.400,745.1,01.17,0.508
2013-11-16 01:15:00,5681E-5,5C000000,-0724,0967,10928,025.2,045.2,0.400,745.1,01.17,0.508
2013-11-16 01:16:00,1312E-4,5C000000,-0724,0965,10908,025.2,045.2,0.400,745.0,01.17,0.508
2013-11-16 01:17:00,1308E-4,5C000000,-0724,0966,10956,025.3,045.3,0.400,745.0,01.17,0.508
2013-11-16 01:18:00,9719E-5,5C000000,-0724,0966,10812,025.3,045.2,0.400,745.1,01.17,0.508
2013-11-16 01:19:00,1112E-4,5C000000,-0724,0967,10883,025.3,045.2,0.400,745.0,01.17,0.508
2013-11-16 01:20:00,8532E-5,5C000000,-0724,0966,10816,025.2,045.2,0.400,745.0,01.17,0.508
2013-11-16 01:21:00,1257E-4,5C000000,-0724,0966,10874,025.3,045.3,0.400,745.0,01.17,0.508
2013-11-16 01:22:00,1358E-4,5C000000,-0724,0966,10965,025.3,045.3,0.400,745.0,01.17,0.508
2013-11-16 01:23:00,1809E-4,5C000000,-0724,0966,10903,025.3,045.2,0.400,745.1,01.17,0.508
2013-11-16 01:24:00,1611E-4,5C000000,-0724,0966,10944,025.2,045.2,0.400,745.0,01.17,0.508
2013-11-16 01:25:00,2165E-4,5C000000,-0724,0965,10890,025.3,045.2,0.400,745.0,01.17,0.508
2013-11-16 01:26:00,1286E-4,5C000000,-0724,0967,10820,025.3,045.2,0.400,745.0,01.17,0.508
2013-11-16 01:27:00,1696E-4,5C000000,-0724,0966,10959,025.3,045.2,0.400,745.0,01.17,0.508
2013-11-16 01:28:00,1432E-4,5C000000,-0724,0965,10943,025.3,045.3,0.400,745.0,01.17,0.508
2013-11-16 01:29:00,1758E-4,5C000000,-0724,0965,10972,025.3,045.2,0.400,745.0,01.17,0.508
2013-11-16 01:30:00,1442E-4,5C000000,-0724,0966,10760,025.3,045.3,0.400,745.1,01.17,0.508
2013-11-16 01:31:00,1341E-4,5C000000,-0724,0966,10906,025.3,045.2,0.400,745.0,01.17,0.508
2013-11-16 01:32:00,1800E-4,5C000000,-0724,0966,10864,025.3,045.3,0.400,745.0,01.17,0.508
2013-11-16 01:33:00,1958E-4,5C000000,-0724,0966,10736,025.3,045.2,0.400,744.9,01.17,0.508
2013-11-16 01:34:00,1019E-4,5C000000,-0724,0966,10782,025.3,045.2,0.400,745.0,01.17,0.508
2013-11-16 01:35:00,1367E-4,5C000000,-0724,0966,10898,025.3,045.2,0.400,745.0,01.17,0.508
2013-11-16 01:36:00,1369E-4,5C000000,-0724,0966,10892,025.3,045.3,0.400,744.9,01.17,0.508
2013-11-16 01:37:00,1390E-4,5C000000,-0724,0965,10797,025.3,045.2,0.400,745.0,01.17,0.508
2013-11-16 01:38:00,1116E-4,5C000000,-0724,0966,10882,025.3,045.2,0.400,744.9,01.17,0.508
2013-11-16 01:39:00,1858E-4,5C000000,-0724,0967,10915,025.3,045.2,0.400,745.0,01.17,0.508
2013-11-16 01:40:00,6563E-5,5C000000,-0724,0967,10937,025.3,045.3,0.400,745.0,01.17,0.508
2013-11-16 01:41:00,1713E-4,5C000000,-0724,0966,10837,025.3,045.3,0.400,745.1,01.17,0.508
2013-11-16 01:42:00,1630E-4,5C000000,-0724,0966,10881,025.3,045.3,0.400,745.0,01.17,0.508
2013-11-16 01:43:00,6866E-5,5C000000,-0724,0966,10983,025.3,045.3,0.400,745.0,01.17,0.508
2013-11-16 01:44:00,1379E-4,5C000000,-0724,0966,10715,025.3,045.2,0.400,745.0,01.17,0.508
2013-11-16 01:45:00,1352E-4,5C000000,-0724,0967,10856,025.3,045.2,0.400,744.9,01.17,0.508
2013-11-16 01:46:00,3336E-5,5C000000,-0724,0966,10666,025.3,045.2,0.400,744.9,01.17,0.508
2013-11-16 01:47:00,2975E-5,5C000000,-0724,0966,10828,025.3,045.3,0.399,744.8,01.17,0.508
2013-11-16 01:48:00,2038E-4,5C000000,-0724,0966,10908,025.3,045.2,0.400,744.9,01.17,0.508
2013-11-16 01:49:00,1489E-4,5C000000,-0724,0965,10915,025.3,045.2,0.400,744.9,01.17,0.508
2013-11-16 01:50:00,1381E-4,5C000000,-0724,0965,10696,025.3,045.2,0.400,744.9,01.17,0.508
2013-11-16 01:51:00,2500E-4,5C000000,-0724,0967,10793,025.3,045.3,0.400,744.8,01.17,0.508
2013-11-16 01:52:00,1519E-4,5C000000,-0724,0966,10822,025.4,045.3,0.399,744.7,01.17,0.508
2013-11-16 01:53:00,1542E-4,5C000000,-0724,0966,10899,025.4,045.2,0.399,744.5,01.17,0.508
2013-11-16 01:54:00,2129E-4,5C000000,-0724,0966,10866,025.4,045.3,0.400,744.6,01.17,0.508
2013-11-16 01:55:00,1443E-4,5C000000,-0724,0965,10847,025.3,045.3,0.400,744.6,01.17,0.508
2013-11-16 01:56:00,1080E-4,5C000000,-0724,0966,10956,025.4,045.3,0.400,744.6,01.17,0.508
2013-11-16 01:57:00,1713E-4,5C000000,-0724,0967,10788,025.4,045.2,0.400,744.9,01.17,0.508
2013-11-16 01:58:00,1029E-4,5C000000,-0724,0965,10985,025.4,045.3,0.399,744.9,01.17,0.508
2013-11-16 01:59:00,1156E-4,5C000000,-0724,0967,10807,025.4,045.2,0.399,745.0,01.17,0.508
2013-11-16 02:00:00,7077E-5,5C000000,-0724,0967,10941,025.4,045.2,0.400,745.0,01.17,0.508
2013-11-16 02:01:00,1220E-4,5C000000,-0724,0967,10796,025.4,045.2,0.400,745.0,01.17,0.508
2013-11-16 02:02:00,1219E-4,5C000000,-0724,0966,10603,025.4,045.3,0.400,745.0,01.17,0.508
2013-11-16 02:03:00,1159E-4,5C000000,-0724,0967,10886,025.4,045.3,0.400,745.0,01.17,0.508
2013-11-16 02:04:00,1099E-4,5C000000,-0724,0967,10951,025.4,045.3,0.400,745.0,01.17,0.508
2013-11-16 02:05:00,1860E-4,5C000000,-0724,0966,11002,025.4,045.2,0.399,745.0,01.17,0.508
2013-11-16 02:06:00,1468E-4,5C000000,-0724,0966,10875,025.4,045.2,0.400,745.1,01.17,0.508
2013-11-16 02:07:00,3074E-5,5C000000,-0724,0967,10809,025.4,045.3,0.400,745.2,01.17,0.508
2013-11-16 02:08:00,1207E-4,5C000000,-0724,0966,10737,025.4,045.2,0.400,745.1,01.17,0.508
2013-11-16 02:09:00,9828E-5,5C000000,-0724,0966,10777,025.4,045.3,0.400,745.2,01.17,0.508
2013-11-16 02:10:00,1652E-4,5C000000,-0724,0967,10843,025.4,045.3,0.400,745.2,01.17,0.508
2013-11-16 02:11:00,1750E-4,5C000000,-0724,0966,10894,025.4,045.2,0.400,745.2,01.17,0.508
2013-11-16 02:12:00,5746E-5,5C000000,-0724,0966,10847,025.4,045.2,0.399,745.1,01.17,0.508
2013-11-16 02:13:00,1094E-4,5C000000,-0724,0967,10750,025.4,045.2,0.399,745.1,01.17,0.508
2013-11-16 02:14:00,8124E-5,5C000000,-0724,0967,10846,025.4,045.3,0.400,745.1,01.17,0.508
2013-11-16 02:15:00,1316E-4,5C000000,-0724,0967,10886,025.4,045.2,0.400,745.1,01.17,0.508
2013-11-16 02:16:00,1572E-4,5C000000,-0724,0966,10798,025.4,045.2,0.400,744.9,01.17,0.508
2013-11-16 02:17:00,1722E-4,5C000000,-0724,0966,10878,025.4,045.3,0.400,745.0,01.17,0.508
2013-11-16 02:18:00,1645E-4,5C000000,-0724,0967,10827,025.4,045.3,0.400,744.9,01.17,0.508
2013-11-16 02:19:00,6435E-5,5C000000,-0724,0967,11014,025.4,045.3,0.399,745.0,01.17,0.508
2013-11-16 02:20:00,1931E-4,5C000000,-0724,0966,10880,025.4,045.3,0.399,744.9,01.17,0.508
2013-11-16 02:21:00,1167E-4,5C000000,-0724,0966,10818,025.4,045.2,0.400,744.9,01.17,0.508
2013-11-16 02:22:00,7046E-5,5C000000,-0724,0966,10883,025.4,045.2,0.400,744.9,01.17,0.508
2013-11-16 02:23:00,6953E-5,5C000000,-0724,0966,10793,025.4,045.2,0.400,745.0,01.17,0.508
2013-11-16 02:24:00,9250E-5,5C000000,-0724,0965,10752,025.4,045.2,0.400,745.0,01.17,0.508
2013-11-16 02:25:00,1184E-4,5C000000,-0724,0966,10773,025.4,045.2,0.399,744.9,01.17,0.508
2013-11-16 02:26:00,9945E-5,5C000000,-0724,0966,10939,025.4,045.3,0.399,744.8,01.17,0.508
2013-11-16 02:27:00,9023E-5,5C000000,-0724,0967,10870,025.4,045.3,0.400,744.8,01.17,0.508
2013-11-16 02:28:00,1052E-4,5C000000,-0724,0966,10804,025.4,045.2,0.400,744.9,01.17,0.508
2013-11-16 02:29:00,1023E-4,5C000000,-0724,0966,10852,025.4,045.2,0.400,744.9,01.17,0.508
2013-11-16 02:30:00,1203E-5,5C000000,-0724,0967,10744,025.4,045.3,0.400,744.9,01.17,0.508
2013-11-16 02:31:00,1420E-4,5C000000,-0724,0967,10832,025.4,045.2,0.400,745.0,01.17,0.508
2013-11-16 02:32:00,1812E-4,5C000000,-0724,0967,10741,025.4,045.2,0.399,745.0,01.17,0.508
2013-11-16 02:33:00,1729E-4,5C000000,-0724,0966,10927,025.4,045.3,0.399,745.0,01.17,0.508
2013-11-16 02:34:00,1489E-4,5C000000,-0724,0966,10815,025.4,045.3,0.399,745.0,01.17,0.508
2013-11-16 02:35:00,1056E-4,5C000000,-0724,0967,10846,025.5,045.3,0.400,745.1,01.17,0.508
2013-11-16 02:36:00,3524E-5,5C000000,-0724,0967,10836,025.5,045.3,0.400,745.1,01.17,0.508
2013-11-16 02:37:00,1447E-4,5C000000,-0724,0965,10910,025.4,045.2,0.400,745.1,01.17,0.508
2013-11-16 02:38:00,1312E-4,5C000000,-0724,0966,10805,025.5,045.3,0.400,745.1,01.17,0.508
2013-11-16 02:39:00,1163E-4,5C000000,-0724,0967,10827,025.5,045.2,0.400,745.1,01.17,0.508
2013-11-16 02:40:00,1915E-4,5C000000,-0724,0966,10828,025.4,045.3,0.399,745.2,01.17,0.508
2013-11-16 02:41:00,1073E-4,5C000000,-0724,0966,10861,025.5,045.2,0.399,745.2,01.17,0.508
2013-11-16 02:42:00,1272E-4,5C000000,-0724,0966,10928,025.4,045.2,0.399,745.2,01.17,0.508
2013-11-16 02:43:00,6584E-5,5C000000,-0724,0966,10797,025.5,045.2,0.400,745.2,01.17,0.508
2013-11-16 02:44:00,1610E-4,5C000000,-0724,0966,10916,025.5,045.2,0.400,745.2,01.17,0.508
2013-11-16 02:45:00,1490E-4,5C000000,-0724,0966,10897,025.5,045.2,0.400,745.2,01.17,0.508
2013-11-16 02:46:00,1945E-4,5C000000,-0724,0966,10909,025.5,045.2,0.400,745.3,01.17,0.508
2013-11-16 02:47:00,1671E-4,5C000000,-0724,0966,10895,025.5,045.2,0.400,745.3,01.17,0.508
2013-11-16 02:48:00,1072E-4,5C000000,-0724,0966,10850,025.5,045.2,0.400,745.2,01.17,0.508
2013-11-16 02:49:00,7664E-5,5C000000,-0724,0967,10984,025.5,045.2,0.399,745.2,01.17,0.508
2013-11-16 02:50:00,1763E-4,5C000000,-0724,0966,10747,025.5,045.3,0.399,745.2,01.17,0.508
2013-11-16 02:51:00,7900E-5,5C000000,-0724,0968,10987,025.5,045.3,0.399,745.2,01.17,0.508
2013-11-16 02:52:00,1540E-4,5C000000,-0724,0966,10977,025.5,045.3,0.399,745.2,01.17,0.508
2013-11-16 02:53:00,1750E-4,5C000000,-0724,0966,10854,025.5,045.3,0.400,745.2,01.17,0.508
2013-11-16 02:54:00,1102E-4,5C000000,-0724,0965,10872,025.5,045.3,0.400,745.3,01.17,0.508
2013-11-16 02:55:00,-2660E-5,5C000000,-0724,0967,10983,025.5,045.3,0.400,745.3,01.17,0.508
2013-11-16 02:56:00,2183E-4,5C000000,-0724,0967,10903,025.5,045.2,0.400,745.3,01.17,0.508
2013-11-16 02:57:00,1711E-4,5C000000,-0724,0965,10766,025.5,045.3,0.400,745.2,01.17,0.508
2013-11-16 02:58:00,1157E-4,5C000000,-0724,0966,10935,025.5,045.2,0.399,745.2,01.17,0.508
2013-11-16 02:59:00,1246E-4,5C000000,-0724,0966,10809,025.5,045.2,0.399,745.3,01.17,0.508
2013-11-16 03:00:00,1548E-4,5C000000,-0724,0966,10879,025.5,045.2,0.399,745.2,01.17,0.508
2013-11-16 03:01:00,1261E-4,5C000000,-0724,0966,10954,025.5,045.2,0.400,745.3,01.17,0.508
2013-11-16 03:02:00,8830E-5,5C000000,-0724,0967,10827,025.5,045.3,0.400,745.3,01.17,0.508
2013-11-16 03:03:00,1959E-4,5C000000,-0724,0966,10830,025.5,045.3,0.400,745.2,01.17,0.508
2013-11-16 03:04:00,1786E-4,5C000000,-0724,0966,10943,025.5,045.3,0.400,745.2,01.17,0.508
2013-11-16 03:05:00,1374E-4,5C000000,-0724,0966,10945,025.5,045.3,0.400,745.1,01.17,0.508
2013-11-16 03:06:00,1618E-4,5C000000,-0724,0966,10757,025.5,045.3,0.400,745.1,01.17,0.508
2013-11-16 03:07:00,9845E-5,5C000000,-0724,0966,10883,025.5,045.3,0.399,745.0,01.17,0.508
2013-11-16 03:08:00,1918E-5,5C000000,-0724,0967,10925,025.5,045.2,0.399,745.1,01.17,0.508
2013-11-16 03:09:00,1325E-4,5C000000,-0724,0967,10955,025.5,045.2,0.399,745.2,01.17,0.508
2013-11-16 03:10:00,1030E-4,5C000000,-0724,0966,10744,025.6,045.3,0.400,745.2,01.17,0.508
2013-11-16 03:11:00,1621E-4,5C000000,-0724,0967,10877,025.5,045.3,0.400,745.1,01.17,0.508
2013-11-16 03:12:00,1941E-4,5C000000,-0724,0967,10821,025.5,045.3,0.400,744.9,01.17,0.508
2013-11-16 03:13:00,1831E-4,5C000000,-0724,0966,10927,025.5,045.2,0.400,744.9,01.17,0.508
2013-11-16 03:14:00,1765E-4,5C000000,-0724,0968,10776,025.5,045.3,0.399,744.9,01.17,0.508
2013-11-16 03:15:00,9706E-5,5C000000,-0724,0966,10709,025.6,045.3,0.399,744.7,01.17,0.508
2013-11-16 03:16:00,1233E-4,5C000000,-0724,0966,10896,025.5,045.3,0.399,744.8,01.17,0.508
2013-11-16 03:17:00,1160E-4,5C000000,-0724,0966,10847,025.5,045.3,0.399,745.0,01.17,0.508
2013-11-16 03:18:00,7789E-5,5C000000,-0724,0967,10807,025.5,045.2,0.399,744.9,01.17,0.508
2013-11-16 03:19:00,1661E-4,5C000000,-0724,0967,10620,025.5,045.3,0.399,744.8,01.17,0.508
2013-11-16 03:20:00,2663E-5,5C000000,-0724,0966,10797,025.6,045.2,0.400,745.0,01.17,0.508
2013-11-16 03:21:00,1125E-4,5C000000,-0724,0967,10838,025.6,045.3,0.400,744.8,01.17,0.508
2013-11-16 03:22:00,1117E-4,5C000000,-0724,0966,10943,025.5,045.3,0.400,744.8,01.17,0.508
2013-11-16 03:23:00,1082E-4,5C000000,-0724,0966,10886,025.6,045.2,0.400,744.9,01.17,0.508
2013-11-16 03:24:00,1714E-4,5C000000,-0724,0966,10857,025.6,045.2,0.399,744.8,01.17,0.508
2013-11-16 03:25:00,6526E-5,5C000000,-0724,0967,10831,025.6,045.2,0.399,744.8,01.17,0.508
2013-11-16 03:26:00,1309E-4,5C000000,-0724,0966,10824,025.6,045.2,0.399,744.8,01.17,0.508
2013-11-16 03:27:00,1787E-4,5C000000,-0724,0967,10861,025.5,045.2,0.399,744.9,01.17,0.508
2013-11-16 03:28:00,1403E-4,5C000000,-0724,0967,10915,025.5,045.3,0.399,744.9,01.17,0.508
2013-11-16 03:29:00,1850E-4,5C000000,-0724,0967,10839,025.6,045.3,0.400,744.8,01.17,0.508
2013-11-16 03:30:00,1210E-4,5C000000,-0724,0966,10733,025.6,045.2,0.400,745.0,01.17,0.508
2013-11-16 03:31:00,9632E-5,5C000000,-0724,0968,10882,025.6,045.2,0.400,744.9,01.17,0.508
2013-11-16 03:32:00,1430E-4,5C000000,-0724,0966,10772,025.6,045.3,0.400,744.9,01.17,0.508
2013-11-16 03:33:00,1354E-4,5C000000,-0724,0966,10925,025.6,045.2,0.399,744.9,01.17,0.508
2013-11-16 03:34:00,1244E-4,5C000000,-0724,0966,10789,025.6,045.3,0.399,744.9,01.17,0.508
2013-11-16 03:35:00,1632E-4,5C000000,-0724,0966,10914,025.6,045.3,0.399,745.0,01.17,0.508
2013-11-16 03:36:00,3174E-4,5C000000,-0724,0967,10936,025.6,045.2,0.399,744.7,01.17,0.508
2013-11-16 03:37:00,1783E-4,5C000000,-0724,0966,10776,025.6,045.3,0.399,744.8,01.17,0.508
2013-11-16 03:38:00,1092E-4,5C000000,-0724,0966,10845,025.6,045.3,0.399,744.7,01.17,0.508
2013-11-16 03:39:00,1492E-5,5C000000,-0724,0966,10833,025.6,045.3,0.400,744.7,01.17,0.508
2013-11-16 03:40:00,1579E-4,5C000000,-0724,0967,10993,025.6,045.2,0.400,744.7,01.17,0.508
2013-11-16 03:41:00,6153E-5,5C000000,-0724,0966,10850,025.6,045.2,0.400,744.6,01.17,0.508
2013-11-16 03:42:00,1045E-4,5C000000,-0724,0967,10874,025.6,045.2,0.399,744.7,01.17,0.508
2013-11-16 03:43:00,1452E-4,5C000000,-0724,0966,10820,025.6,045.3,0.399,744.8,01.17,0.508
2013-11-16 03:44:00,6290E-5,5C000000,-0724,0966,10732,025.6,045.3,0.399,744.6,01.17,0.508
2013-11-16 03:45:00,1785E-4,5C000000,-0724,0967,10897,025.6,045.3,0.399,744.7,01.17,0.508
2013-11-16 03:46:00,1912E-4,5C000000,-0724,0966,10994,025.6,045.3,0.399,744.7,01.17,0.508
2013-11-16 03:47:00,1523E-4,5C000000,-0724,0967,10774,025.6,045.3,0.399,744.6,01.17,0.508
2013-11-16 03:48:00,6523E-5,5C000000,-0724,0967,10954,025.6,045.2,0.399,744.8,01.17,0.508
2013-11-16 03:49:00,5321E-5,5C000000,-0724,0967,10866,025.6,045.2,0.400,744.8,01.17,0.508
2013-11-16 03:50:00,7936E-5,5C000000,-0724,0968,10817,025.6,045.3,0.400,744.7,01.17,0.508
2013-11-16 03:51:00,8217E-5,5C000000,-0724,0967,10919,025.6,045.3,0.399,744.8,01.17,0.508
2013-11-16 03:52:00,1214E-4,5C000000,-0724,0966,10843,025.6,045.2,0.399,744.7,01.17,0.508
2013-11-16 03:53:00,1415E-4,5C000000,-0724,0966,10941,025.6,045.3,0.399,744.7,01.17,0.508
2013-11-16 03:54:00,8372E-5,5C000000,-0724,0967,10800,025.6,045.3,0.399,744.8,01.17,0.508
2013-11-16 03:55:00,1182E-4,5C000000,-0724,0966,10890,025.6,045.3,0.399,745.0,01.17,0.508
2013-11-16 03:56:00,1036E-4,5C000000,-0724,0966,10764,025.6,045.2,0.399,745.0,01.17,0.508
2013-11-16 03:57:00,1566E-4,5C000000,-0724,0966,10838,025.6,045.3,0.399,745.0,01.17,0.508
2013-11-16 03:58:00,1261E-4,5C000000,-0724,0966,10807,025.6,045.2,0.399,745.1,01.17,0.508
2013-11-16 03:59:00,9973E-5,5C000000,-0724,0966,10861,025.6,045.3,0.399,745.0,01.17,0.508
2013-11-16 04:00:00,8705E-5,5C000000,-0724,0966,10819,025.6,045.3,0.400,745.2,01.17,0.508
2013-11-16 04:01:00,2259E-4,5C000000,-0724,0967,10813,025.6,045.2,0.400,745.0,01.17,0.508
2013-11-16 04:02:00,-3264E-5,5C000000,-0724,0966,10924,025.6,045.3,0.400,745.1,01.17,0.508
2013-11-16 04:03:00,1171E-4,5C000000,-0724,0967,10820,025.6,045.2,0.400,745.2,01.17,0.508
2013-11-16 04:04:00,1104E-4,5C000000,-0724,0966,10795,025.6,045.2,0.400,745.2,01.17,0.508
2013-11-16 04:05:00,-2574E-6,5C000000,-0724,0967,10882,025.6,045.3,0.400,745.2,01.17,0.508
2013-11-16 04:06:00,1365E-4,5C000000,-0724,0966,10909,025.6,045.3,0.399,745.2,01.17,0.508
2013-11-16 04:07:00,1327E-4,5C000000,-0724,0967,10809,025.6,045.3,0.399,745.2,01.17,0.508
2013-11-16 04:08:00,1080E-4,5C000000,-0724,0966,10781,025.6,045.3,0.399,745.2,01.17,0.508
2013-11-16 04:09:00,4410E-5,5C000000,-0724,0966,10696,025.6,045.3,0.399,745.1,01.17,0.508
2013-11-16 04:10:00,1585E-4,5C000000,-0724,0967,10629,025.6,045.3,0.399,745.1,01.17,0.508
2013-11-16 04:11:00,1279E-4,5C000000,-0724,0965,10832,025.6,045.2,0.399,745.2,01.17,0.508
2013-11-16 04:12:00,1427E-4,5C000000,-0724,0967,10855,025.6,045.3,0.399,745.2,01.17,0.508
2013-11-16 04:13:00,1423E-4,5C000000,-0724,0966,10740,025.6,045.3,0.399,745.2,01.17,0.508
2013-11-16 04:14:00,1667E-4,5C000000,-0724,0966,10794,025.6,045.3,0.399,745.2,01.17,0.508
2013-11-16 04:15:00,1659E-4,5C000000,-0724,0965,10785,025.6,045.3,0.400,745.2,01.17,0.508
2013-11-16 04:16:00,7958E-5,5C000000,-0724,0968,10868,025.6,045.3,0.400,745.2,01.17,0.508
2013-11-16 04:17:00,7259E-5,5C000000,-0724,0966,10763,025.6,045.3,0.399,745.2,01.17,0.508
2013-11-16 04:18:00,1417E-4,5C000000,-0724,0967,10903,025.6,045.3,0.399,745.0,01.17,0.508
2013-11-16 04:19:00,1152E-4,5C000000,-0724,0967,10794,025.6,045.2,0.399,745.1,01.17,0.508
2013-11-16 04:20:00,1242E-4,5C000000,-0724,0966,10821,025.6,045.2,0.399,745.0,01.17,0.508